Location: Appeville
(49.3218°N, 1.3427°W)
Time: 13:23:18
(UTC+00:00)

USA 116 - Pass Details

Date: 08 December 2019
Orbit: 405 x 834 km, 97.9° (Epoch: 18 November)

Event Time Altitude Azimuth Distance (km) Brightness Sun altitude
Rises 05:15:44 0° 158° (SSE) 2,823 7.7 -23.6°
Reaches altitude 10° 05:17:47 10° 156° (SSE) 1,986 6.9 -23.3°
Maximum altitude 05:22:07 71° 73° (ENE) 719 4.3 -22.6°
Enters shadow 05:26:11 15° 351° (N) 1,904 6.3 -21.9°
